This demonstration page uses our WeatherBlox Daily Observations layout. Learn more.

38.88101, -77.10428

Hourly Observations for February 16, 2018

Temp ( °F °C ) Dew Point ( °F °C ) Humidity (%) Winds ( mph kmh ) Pressure ( in mb ) Visibility ( mi km ) Precip ( " mm )
12:52 am 00:52 Partly Cloudy 66 18.9 58 14.4 75 75 S 12 19 29.65 1004 10 16.0934 0 0
1:52 am 01:52 Partly Cloudy 65 18.3 58 14.4 78 78 SSW 15 24 29.63 1004 10 16.0934 0 0
2:52 am 02:52 Mostly Cloudy 66 18.9 58 14.4 75 75 SSW 13 20 29.64 1004 10 16.0934 0 0
3:52 am 03:52 Cloudy 63 17.2 57 13.9 81 81 NNW 5 7 29.66 1004 10 16.0934 0 0
4:00 am 04:00 Cloudy with Light Rain 64 17.8 58 14.4 81 81 N 9 15 29.65 1004 10 16.0934 0 0.0254
4:52 am 04:52 Cloudy with Light Rain 64 17.8 58 14.4 81 81 WNW 8 13 29.67 1005 10 16.0934 0 0.0254
5:52 am 05:52 Cloudy with Light Rain 63 17.2 58 14.4 84 84 W 7 11 29.7 1006 10 16.0934 0.02 0.508
6:52 am 06:52 Cloudy with Light Rain 62 16.7 58 14.4 86 86 SW 5 7 29.72 1006 10 16.0934 0.01 0.254
7:52 am 07:52 Cloudy 56 13.3 55 12.8 97 97 S 9 15 29.73 1007 10 16.0934 0 0.0254
8:52 am 08:52 Cloudy 56 13.3 56 13.3 100 100 S 7 11 29.76 1008 10 16.0934 0 0
9:52 am 09:52 Cloudy 57 13.9 57 13.9 100 100 S 8 13 29.76 1008 10 16.0934 0 0.0254
10:52 am 10:52 Cloudy 58 14.4 57 13.9 97 97 S 10 17 29.74 1007 10 16.0934 0 0.0254
11:52 am 11:52 Cloudy 62 16.7 58 14.4 86 86 SSW 9 15 29.73 1007 10 16.0934 0 0
12:18 pm 12:18 Cloudy 63 17.2 58 14.4 84 84 SW 13 20 29.74 1007 10 16.0934 0 0
12:52 pm 12:52 Cloudy with Light Rain 63 17.2 58 14.4 84 84 SW 8 13 29.75 1008 10 16.0934 0 0.0254
1:52 pm 13:52 Cloudy 64 17.8 60 15.6 87 87 SW 7 11 29.74 1007 10 16.0934 0.01 0.254
2:04 pm 14:04 Cloudy with Rain 63 17.2 59 15 87 87 NW 25 41 29.77 1008 5 8.0467 0 0.0254
2:19 pm 14:19 Cloudy with Light Rain 58 14.4 53 11.7 84 84 NNW 20 31 29.8 1009 10 16.0934 0.01 0.254
2:52 pm 14:52 Cloudy 57 13.9 49 9.4 74 74 NNW 22 35 29.82 1010 10 16.0934 0.01 0.254
3:12 pm 15:12 Cloudy 56 13.3 45 7.2 67 67 NNW 22 35 29.83 1010 10 16.0934 0 0
3:52 pm 15:52 Cloudy with Light Rain 56 13.3 44 6.7 65 65 NW 18 30 29.86 1011 10 16.0934 0 0.0254
4:52 pm 16:52 Cloudy 56 13.3 44 6.7 65 65 NW 13 20 29.88 1012 10 16.0934 0 0.0254
5:52 pm 17:52 Cloudy 54 12.2 41 5 62 62 NNW 20 31 29.96 1014 10 16.0934 0 0
6:52 pm 18:52 Cloudy 51 10.6 35 1.7 54 54 NW 18 30 30.03 1017 10 16.0934 0 0
7:16 pm 19:16 Cloudy 50 10 37 2.8 61 61 NNW 17 28 30.06 1018 10 16.0934 0 0
7:52 pm 19:52 Cloudy 48 8.9 32 0 54 54 NNW 20 31 30.1 1019 10 16.0934 0 0
8:52 pm 20:52 Mostly Cloudy 45 7.2 31 -0.6 58 58 NNW 12 19 30.16 1021 10 16.0934 0 0
9:52 pm 21:52 Mostly Cloudy 43 6.1 28 -2.2 56 56 NNW 22 35 30.2 1023 10 16.0934 0 0
10:52 pm 22:52 Partly Cloudy 41 5 26 -3.3 55 55 NNW 20 31 30.23 1024 10 16.0934 0 0
11:52 pm 23:52 Partly Cloudy 40 4.4 26 -3.3 58 58 NNW 16 26 30.26 1025 10 16.0934 0 0

Powered by AerisWeather